Погода в Летоянни

Италия     37°52′59″N   15°18′31″E
темп.,
°C
ветер,
м/с
пор.,
м/с
влажн.,
%
обл.,
%
осадки,
мм/ч
давл.,
гПа
погр.,
м
26 октября, вт
вт2623:00+15юв3499100 4.3 1015335
02:00+14юв2498100 14.5 1016278
05:00+14св2499100 15.1 1014379
08:00+15ююв3599100 50.6 1014327
11:00+15вюв3698100 22.1 1015426
14:00+15юв3797100 26.8 1015714
17:00+15юв3596100 2.7 1016359
20:00+14ююв369686 4.1 1017369
27 октября, ср
ср2723:00+14ю359652 0.5 1018270
02:00+13ююз23947 0.5 101886
05:00+13ю249374 0.0 101893
08:00+13ю359789 0.1 1019207
11:00+15ю3584100 0.1 1020499
14:00+16ю3477100 0.1 1019531
17:00+14ю3486100 0.0 1018301
20:00+13ю3592100 0.0 1019216
28 октября, чт
чт2823:00+13ююз3591100 0.1 1019246
02:00+12ююз2391100 1.4 1017115
05:00+12сз1196100 5.3 1015103
08:00+13юв2496100 10.8 1015248
11:00+13юв41594100 8.3 10151335
14:00+14вюв412100100 38.3 1013908
17:00+15юв589899 23.3 1013699
20:00+15юв4798100 30.8 1013657
29 октября, пт
пт2923:00+15юв4799100 5.1 1012600
02:00+15юв61297100 12.1 10121087
05:00+15ююв71497100 8.0 10111197
08:00+14ююв51197100 11.1 1012784
11:00+16ююв4689100 0.3 1014629
14:00+17вюв2280100 0.3 1014617
17:00+17всв1284100 0.9 1015199
20:00+14ссз2393100 2.1 1017117
30 октября, сб
сб3023:00+14с129588 2.2 1019135
02:00+14ссз2295100 2.8 101991
05:00+13сз129656 0.1 101968
08:00+14ссз119279 0.1 102041
11:00+18в117336 0.0 1021733
14:00+18юв226796 0.2 10201015
17:00+17юв117612 0.2 1021438
20:00+14ююз11920 0.2 102328